Погода в Кене

Египет     26°09′31″N   32°43′16″E
темп.,
°C
ветер,
м/с
пор.,
м/с
влажн.,
%
обл.,
%
осадки,
мм/ч
давл.,
гПа
погр.,
м
10 августа, ср
ср1023:00+33ссз814254 0.0 1005469
02:00+32ссз611294 0.0 1004322
05:00+30ссз58310 0.0 1005168
08:00+34ссз89230 0.0 1006939
11:00+39сз77161 0.0 10051646
14:00+41сз76140 0.0 10032000
17:00+40сз87150 0.0 10021883
20:00+36сз610200 0.0 1004259
11 августа, чт
чт1123:00+33сз59230 0.0 1004206
02:00+31сз45260 0.0 100487
05:00+30сз46300 0.0 100588
08:00+33ссз68270 0.0 1006723
11:00+39ссз44160 0.0 10051880
14:00+42сз55120 0.0 10032319
17:00+41сз76120 0.0 10022002
20:00+36сз712170 0.0 1004328
12 августа, пт
пт1223:00+33ссз510190 0.0 1005217
02:00+31ссз46195 0.0 100581
05:00+30ссз33210 0.0 100631
08:00+34ссз46180 0.0 1007681
11:00+39сз66120 0.0 10051769
14:00+42зсз77105 0.0 10032202
17:00+40сз87111 0.0 10032016
20:00+36сз59155 0.0 1005149
13 августа, сб
сб1323:00+33ссз58195 0.0 1006132
02:00+31сз452315 0.0 100561
05:00+30сз45251 0.0 100557
08:00+34ссз69192 0.0 1006882
11:00+40сз67120 0.0 10051896
14:00+42сз7790 0.0 10032222
17:00+41сз77100 0.0 10022007
20:00+35сз610160 0.0 1004186
14 августа, вс
вс1423:00+32ссз46210 0.0 1005103
02:00+30сз46262 0.0 1004103
05:00+28ссз23354 0.0 100545
08:00+32сз47290 0.0 1006641
11:00+39сз66160 0.0 10041818
14:00+41зсз7694 0.0 10032123
17:00+40сз7685 0.0 10021982
20:00+34зсз57155 0.0 100484